Managua, Nicaragua

12:45 PM CST on February 27, 2017 (GMT -0600)
Augusto Cesar Sandino

Weather History for MNMG - October, 2012

Change the Weather History Date:

Thursday, October 4, 2012

  Actual Average Record
Temperature  
Mean Temperature 82 °F -  
Max Temperature 91 °F 86 °F 93 °F (2006)
Min Temperature 73 °F 71 °F 39 °F (2004)
Cooling Degree Days 17    
Growing Degree Days 32 (Base 50)    
Moisture  
Dew Point 73 °F    
Average Humidity 79    
Maximum Humidity 94    
Minimum Humidity 58    
Precipitation  
Precipitation 0.00 in - - ()
Sea Level Pressure  
Sea Level Pressure 29.88 in    
Wind  
Wind Speed 3 mph ()    
Max Wind Speed 21 mph    
Max Gust Speed -    
Visibility 6.0 miles    
Events Rain    
Averages and records for this station are not official NWS values.
T = Trace of Precipitation, MM = Missing Value Source: Averaged Metar Reports

Daily Weather History Graph

Daily Weather History Graph

Search for Another Location

Airport or City:

Trip Planner

Search our weather history database for the weather conditions in past years. The results will help you decide how hot, cold, wet, or windy it might be!

Date:

Astronomy

Oct. 04, 2012 Rise Set
Actual Time 5:33 AM CST 5:32 PM CST
Civil Twilight 5:12 AM CST 5:53 PM CST
Nautical Twilight 4:48 AM CST 6:18 PM CST
Astronomical Twilight 4:23 AM CST 6:42 PM CST
Moon 8:53 PM CST (10/4) 9:05 AM CST (10/4)
Length of Visible Light 12h 40m
Length of Day
11h 58m
Waning Gibbous, 81% of the Moon is Illuminated
Oct 4
Waning Gibbous
Oct 8
Last Quarter
Oct 15
New
Oct 21
First Quarter
Oct 29
Full

Hourly Weather History & Observations

Time (CST) Temp. Heat Index Dew Point Humidity Pressure Visibility Wind Dir Wind Speed Gust Speed Precip Events Conditions
12:00 AM 77.0 °F - 73.4 °F 89% 29.89 in 6.2 mi Calm Calm - N/A   Scattered Clouds
1:00 AM 77.0 °F - 73.4 °F 89% 29.86 in 6.2 mi Calm Calm - N/A   Scattered Clouds
2:00 AM 75.2 °F - 73.4 °F 94% 29.86 in 6.2 mi Calm Calm - N/A   Scattered Clouds
3:00 AM 75.2 °F - 73.4 °F 94% 29.86 in 6.2 mi Calm Calm - N/A   Scattered Clouds
4:00 AM 75.2 °F - 73.4 °F 94% 29.86 in 6.2 mi Calm Calm - N/A   Scattered Clouds
5:00 AM 75.2 °F - 73.4 °F 94% 29.89 in 6.2 mi Calm Calm - N/A   Scattered Clouds
6:00 AM 73.4 °F - 71.6 °F 94% 29.89 in 5.6 mi Calm Calm - N/A   Scattered Clouds
7:00 AM 78.8 °F - 73.4 °F 83% 29.92 in 6.2 mi Calm Calm - N/A   Scattered Clouds
8:00 AM 82.4 °F 88.2 °F 73.4 °F 74% 29.92 in 6.2 mi East 9.2 mph - N/A   Scattered Clouds
9:00 AM 84.2 °F 90.9 °F 73.4 °F 70% 29.95 in 6.2 mi East 9.2 mph - N/A   Scattered Clouds
10:00 AM 86.0 °F 93.4 °F 73.4 °F 66% 29.92 in 6.2 mi East 11.5 mph - N/A   Scattered Clouds
11:00 AM 87.8 °F 93.8 °F 71.6 °F 58% 29.92 in 6.2 mi East 9.2 mph - N/A   Scattered Clouds
12:00 PM 87.8 °F 97.6 °F 75.2 °F 66% 29.86 in 6.2 mi ENE 6.9 mph - N/A   Scattered Clouds
1:00 PM 91.4 °F 102.5 °F 75.2 °F 59% 29.83 in 3.7 mi ESE 20.7 mph - N/A Rain Rain
2:00 PM 86.0 °F 91.8 °F 71.6 °F 62% 29.83 in 4.3 mi SE 16.1 mph - N/A Rain Rain
3:00 PM 86.0 °F 93.4 °F 73.4 °F 66% 29.80 in 6.2 mi SE 9.2 mph - N/A   Scattered Clouds
4:00 PM 86.0 °F 93.4 °F 73.4 °F 66% 29.83 in 6.2 mi ESE 11.5 mph - N/A   Scattered Clouds
5:00 PM 82.4 °F 89.5 °F 75.2 °F 79% 29.83 in 6.2 mi East 11.5 mph - N/A   Scattered Clouds
6:00 PM 80.6 °F 86.2 °F 75.2 °F 84% 29.86 in 6.2 mi East 4.6 mph - N/A   Scattered Clouds
7:00 PM 78.8 °F - 69.8 °F 74% 29.86 in 6.2 mi East 4.6 mph - N/A   Scattered Clouds
8:00 PM 78.8 °F - 71.6 °F 78% 29.89 in 6.2 mi Calm Calm - N/A   Scattered Clouds
9:00 PM 77.0 °F - 71.6 °F 83% 29.92 in 6.2 mi Calm Calm - N/A   Scattered Clouds
10:00 PM 77.0 °F - 71.6 °F 83% 29.92 in 6.2 mi Calm Calm - N/A   Partly Cloudy
11:00 PM 75.2 °F - 71.6 °F 89% 29.92 in 6.2 mi Calm Calm - N/A   Partly Cloudy